Regional Weather Roundup
Issued by NWS

Home | Current Version | Previous Version | Graphics & Text | Print | Product List | Glossary On
Versions: 1 2 3 4 5 6 7 8 9 10 11 12 13 14 15 16 17 18 19 20 21 22 23 24 25 26 27 28 29 30 31 32 33 34 35 36 37 38 39 40 41 42 43 44 45 46 47 48 49 50
000
ASUS43 KDMX 190307
RWRIA

WEATHER ROUNDUP FOR IOWA
NATIONAL WEATHER SERVICE DES MOINES IA
1000 PM CDT THU SEP 18 2014

NOTE: "FAIR" INDICATES FEW OR NO CLOUDS BELOW 12,000 FEET WITH NO
SIGNIFICANT WEATHER AND/OR OBSTRUCTIONS TO VISIBILITY.

* - THESE STATIONS ARE NOT NWS STATIONS...THUS NOT UNDER NWS
QUALITY CONTROL.  THEY ALSO DO NOT REPORT WEATHER SUCH
AS PRECIPITATION OR FOG.

IAZ001>003-012>014-020>022-031>034-043>046-190400-
   NORTHWEST IOWA

CITY           SKY/WX    TMP DP  RH WIND       PRES   REMARKS
CARROLL *      CLEAR     55  54  94 S6        30.02S
CHEROKEE *     CLEAR     59  55  88 SE7       29.98F
DENISON *      CLEAR     59  55  88 SE6       29.99S
LE MARS *        N/A     63  57  82 SE8G18    29.96S
ORANGE CITY *  CLEAR     63  55  77 SE8       29.96S
SHELDON *      CLEAR     61  55  82 SE13      29.96S
SIOUX CITY     CLEAR     64  57  78 SE12      29.94F
SPENCER        MOCLDY    61  52  72 SE12      29.99S
STORM LAKE *   CLEAR     57  55  94 SE9       30.00F
$$

IAZ055>058-069>071-079>083-090>094-190400-
   SOUTHWEST IOWA

CITY           SKY/WX    TMP DP  RH WIND       PRES   REMARKS
ATLANTIC *     CLEAR     61  57  88 CALM      30.01S
AUDUBON *      CLEAR     57  52  82 CALM      30.04R
CLARINDA *     CLEAR     61  57  88 VRB3      30.03S
COUNCIL BLFS * CLEAR     61  59  94 SE10      29.98S
CRESTON *      CLEAR     57  57 100 SE7       30.04S
HARLAN  *      CLEAR     61  57  88 SE6       30.05R
LAMONI         CLEAR     60  57  89 SE5       30.04S
SHENANDOAH *   CLEAR     61  57  88 CALM      30.01S
$$

IAZ047>049-059>061-072>074-084-190400-
   CENTRAL IOWA

CITY           SKY/WX    TMP DP  RH WIND       PRES   REMARKS
AMES           CLEAR     55  52  89 CALM      30.05S
ANKENY *       CLEAR     55  54  94 CALM      30.05S
CHARITON *     CLEAR     57  55  94 SE5       30.05S
DES MOINES     CLEAR     63  55  75 SE7       30.05R
GRINNELL*      CLEAR     55  52  88 E5        30.07S
KNOXVILLE *    CLEAR     61  55  82 SE5       30.05S
MARSHALLTOWN   CLEAR     58  53  84 SE3       30.06R
PELLA *        CLEAR     57  54  88 CALM      30.07S
PERRY *          N/A     57  54  88 SE5       30.04S
$$

IAZ004>006-015-016-023>025-035-036-190400-
   NORTH CENTRAL IOWA

CITY           SKY/WX    TMP DP  RH WIND       PRES   REMARKS
ALGONA *       CLEAR     61  50  67 SE10      30.02S
CLARION *        N/A     59  52  77 SE8       30.04S
ESTHERVILLE    PTCLDY    60  50  69 S13       30.00R
FORT DODGE *   CLEAR     63  50  63 S6        30.04S
MASON CITY     PTCLDY    58  53  84 SE9       30.06R
FOREST CITY *  CLEAR     57  54  88 SE7       30.04S
IOWA FALLS *     N/A     55  52  88 SE3       30.07R
$$

IAZ007>011-017>019-026>030-037>042-050>054-066-190400-
   NORTHEAST IOWA

CITY           SKY/WX    TMP DP  RH WIND       PRES   REMARKS
CEDAR RAPIDS   CLEAR     57  53  86 E6        30.08R
CHARLES CITY * CLEAR     57  52  82 SE6       30.08R
CLINTON *      CLEAR     54  50  87 E7        30.14R
DECORAH *      CLOUDY    57  54  88 SE8       30.08S
DUBUQUE        CLEAR     58  52  80 SE8       30.11S
MONTICELLO *   CLEAR     57  54  88 SE7       30.09S
OELWEIN *      CLEAR     57  54  88 SE8       30.09S
WATERLOO       CLEAR     58  52  80 E6        30.07R
$$

IAZ064-065-067-068-078-190400-
   EAST CENTRAL IOWA

CITY           SKY/WX    TMP DP  RH WIND       PRES   REMARKS
DAVENPORT      CLEAR     55  49  80 E6        30.11R
IOWA CITY      CLEAR     60  53  77 SE6       30.09R
MT. PLEASANT * CLEAR     57  52  82 E6        30.08R
MUSCATINE *    CLEAR     57  52  82 CALM      30.09S
QUAD CITIES    CLEAR     57  49  74 E7        30.10R
$$

IAZ062-063-075>077-085>089-095>099-190400-
   SOUTHEAST IOWA

CITY           SKY/WX    TMP DP  RH WIND       PRES   REMARKS
BURLINGTON     CLEAR     61  52  72 E6        30.08R
FAIRFIELD *    CLEAR     57  52  82 E6        30.07R
FORT MADISON * CLEAR     61  54  77 E5        30.08S
KEOKUK *       CLEAR     61  54  77 E8        30.07R
OSKALOOSA *      N/A     57  54  88 SE6       30.07R
CENTERVILLE *  CLEAR     52  52 100 CALM      30.08R
OTTUMWA        CLEAR     57  52  83 SE6       30.07R
WASHINGTON *   CLEAR     55  54  94 SE7       30.07S
$$

ABBREVIATIONS USED IN REMARKS
   TC - TEMPERATURES IN CELSIUS
  WCI - WIND CHILL INDEX
   HX - HEAT INDEX
  VSB - VISIBILITY
$$




USA.gov is the U.S. government's official web portal to all federal, state and local government web resources and services.